SKW3388 KFAT-KSAN

Flight info

Callsign SKW3388
Flight time 0h 50m
Altitude 29000
Route BULL3 NTELL FRAME EHF HUULK COMIX2
Aircraft E75L/M-SDE3GILORVW/S

Departure

Time 2026-04-16 21:56
Airport Fresno Yosemite International Airport (KFAT)

Arrival

Time 2026-04-16 22:47
Airport San Diego International Airport (KSAN)
Time Latitude Longitude Altitude Speed Heading
2026-04-16 21:41 36.77136 -119.71776 339 ft 0 kts 304°
2026-04-16 21:48 36.77135 -119.71774 339 ft 2 kts 304°
2026-04-16 21:48 36.77120 -119.71747 336 ft 4 kts 304°
2026-04-16 21:49 36.77104 -119.71724 337 ft 4 kts 347°
2026-04-16 21:49 36.77089 -119.71732 338 ft 4 kts 35°
2026-04-16 21:49 36.77078 -119.71741 336 ft 0 kts 35°
2026-04-16 21:51 36.77079 -119.71740 336 ft 1 kts 34°
2026-04-16 21:52 36.77096 -119.71726 336 ft 4 kts 34°
2026-04-16 21:52 36.77130 -119.71697 336 ft 7 kts 35°
2026-04-16 21:52 36.77180 -119.71652 339 ft 9 kts 35°
2026-04-16 21:52 36.77212 -119.71600 337 ft 9 kts 85°
2026-04-16 21:53 36.77180 -119.71519 335 ft 12 kts 124°
2026-04-16 21:53 36.77128 -119.71422 337 ft 15 kts 123°
2026-04-16 21:53 36.77064 -119.71316 338 ft 17 kts 126°
2026-04-16 21:53 36.76991 -119.71189 338 ft 19 kts 125°
2026-04-16 21:54 36.76910 -119.71044 337 ft 21 kts 127°
2026-04-16 21:54 36.76837 -119.70920 333 ft 16 kts 125°
2026-04-16 21:54 36.76776 -119.70812 339 ft 11 kts 125°
2026-04-16 21:54 36.76762 -119.70711 339 ft 13 kts 90°
2026-04-16 21:55 36.76761 -119.70582 339 ft 16 kts 90°
2026-04-16 21:55 36.76779 -119.70466 334 ft 10 kts 36°
2026-04-16 21:55 36.76822 -119.70428 337 ft 5 kts 34°
2026-04-16 21:55 36.76864 -119.70393 336 ft 6 kts 34°
2026-04-16 21:56 36.76902 -119.70390 336 ft 6 kts 325°
2026-04-16 21:56 36.76963 -119.70493 336 ft 42 kts 305°
2026-04-16 21:56 36.77315 -119.71107 335 ft 129 kts 305°
2026-04-16 21:56 36.77886 -119.72169 971 ft 156 kts 304°
2026-04-16 21:57 36.78523 -119.73279 2107 ft 165 kts 308°
2026-04-16 21:57 36.78936 -119.74775 2845 ft 204 kts 269°
2026-04-16 21:57 36.78395 -119.76489 4041 ft 230 kts 234°
2026-04-16 21:57 36.77033 -119.77793 5054 ft 263 kts 213°
2026-04-16 21:58 36.75312 -119.78759 6400 ft 279 kts 193°
2026-04-16 21:58 36.73347 -119.78625 7766 ft 295 kts 163°
2026-04-16 21:58 36.71517 -119.77409 9126 ft 304 kts 146°
2026-04-16 21:58 36.69808 -119.75815 10513 ft 313 kts 142°
2026-04-16 21:59 36.68017 -119.74120 11442 ft 333 kts 142°
2026-04-16 21:59 36.66165 -119.72292 12504 ft 346 kts 141°
2026-04-16 21:59 36.64286 -119.70334 13609 ft 358 kts 140°
2026-04-16 21:59 36.62392 -119.68252 14628 ft 368 kts 138°
2026-04-16 22:00 36.60404 -119.66202 15599 ft 376 kts 150°
2026-04-16 22:00 36.58036 -119.64808 16613 ft 379 kts 162°
2026-04-16 22:00 36.55558 -119.63608 17596 ft 386 kts 161°
2026-04-16 22:00 36.53040 -119.62339 18521 ft 394 kts 161°
2026-04-16 22:01 36.50485 -119.61043 19400 ft 399 kts 161°
2026-04-16 22:01 36.47901 -119.59729 20268 ft 404 kts 161°
2026-04-16 22:01 36.45289 -119.58393 21128 ft 408 kts 161°
2026-04-16 22:01 36.42653 -119.57038 21983 ft 412 kts 161°
2026-04-16 22:02 36.39996 -119.55671 22807 ft 416 kts 161°
2026-04-16 22:02 36.37309 -119.54290 23596 ft 420 kts 161°
2026-04-16 22:02 36.34599 -119.52900 24265 ft 424 kts 161°
2026-04-16 22:02 36.31867 -119.51500 24953 ft 426 kts 161°
2026-04-16 22:03 36.29116 -119.50090 25618 ft 429 kts 160°
2026-04-16 22:03 36.26350 -119.48676 26260 ft 432 kts 160°
2026-04-16 22:03 36.23562 -119.47251 26887 ft 434 kts 160°
2026-04-16 22:03 36.20760 -119.45823 27504 ft 437 kts 160°
2026-04-16 22:04 36.17940 -119.44386 28085 ft 440 kts 160°
2026-04-16 22:04 36.15105 -119.42945 28691 ft 442 kts 160°
2026-04-16 22:04 36.12250 -119.41494 29169 ft 447 kts 160°
2026-04-16 22:04 36.09316 -119.40014 29142 ft 463 kts 160°
2026-04-16 22:05 36.07321 -119.39010 29160 ft 472 kts 160°
2026-04-16 22:05 36.03216 -119.36943 29197 ft 489 kts 160°
2026-04-16 22:05 36.00023 -119.35336 29123 ft 502 kts 160°
2026-04-16 22:05 35.97854 -119.34246 29021 ft 494 kts 160°
2026-04-16 22:06 35.94698 -119.32657 29017 ft 489 kts 160°
2026-04-16 22:06 35.85287 -119.27934 29048 ft 486 kts 160°
2026-04-16 22:07 35.79026 -119.24799 29051 ft 485 kts 160°
2026-04-16 22:07 35.72826 -119.21699 29045 ft 484 kts 160°
2026-04-16 22:08 35.66545 -119.18565 29041 ft 484 kts 160°
2026-04-16 22:08 35.60307 -119.15457 29022 ft 484 kts 160°
2026-04-16 22:09 35.54121 -119.12381 29027 ft 483 kts 160°
2026-04-16 22:09 35.47887 -119.09285 29026 ft 483 kts 160°
2026-04-16 22:10 35.41750 -119.05889 29029 ft 484 kts 157°
2026-04-16 22:10 35.35640 -119.02477 29027 ft 482 kts 157°
2026-04-16 22:11 35.29532 -118.99083 29028 ft 482 kts 158°
2026-04-16 22:11 35.23421 -118.95700 29029 ft 482 kts 158°
2026-04-16 22:12 35.17332 -118.92339 29029 ft 478 kts 158°
2026-04-16 22:12 35.11264 -118.88995 29021 ft 478 kts 158°
2026-04-16 22:13 35.05190 -118.85655 29014 ft 479 kts 158°
2026-04-16 22:13 34.99123 -118.82322 29007 ft 476 kts 158°
2026-04-16 22:14 34.93078 -118.79008 29009 ft 476 kts 158°
2026-04-16 22:14 34.87030 -118.75699 28999 ft 476 kts 158°
2026-04-16 22:15 34.80980 -118.72393 28982 ft 476 kts 158°
2026-04-16 22:15 34.74930 -118.69092 28975 ft 477 kts 158°
2026-04-16 22:16 34.68881 -118.65798 28955 ft 476 kts 159°
2026-04-16 22:16 34.62870 -118.62529 28959 ft 473 kts 159°
2026-04-16 22:17 34.56981 -118.59000 28970 ft 474 kts 152°
2026-04-16 22:17 34.51307 -118.54924 28939 ft 474 kts 152°
2026-04-16 22:18 34.45632 -118.50859 28939 ft 474 kts 152°
2026-04-16 22:18 34.40005 -118.46836 28969 ft 471 kts 151°
2026-04-16 22:19 34.34364 -118.42812 28987 ft 471 kts 151°
2026-04-16 22:19 34.28719 -118.38793 28982 ft 471 kts 151°
2026-04-16 22:20 34.23069 -118.34776 28982 ft 472 kts 151°
2026-04-16 22:20 34.17418 -118.30766 28982 ft 471 kts 151°
2026-04-16 22:21 34.11765 -118.26760 28981 ft 471 kts 151°
2026-04-16 22:21 34.06109 -118.22759 28974 ft 471 kts 151°
2026-04-16 22:22 34.00465 -118.18772 28977 ft 469 kts 151°
2026-04-16 22:22 33.94824 -118.14794 28977 ft 470 kts 151°
2026-04-16 22:23 33.89186 -118.10823 28962 ft 469 kts 151°
2026-04-16 22:23 33.83548 -118.06866 28949 ft 468 kts 152°
2026-04-16 22:24 33.77898 -118.03136 28946 ft 466 kts 153°
2026-04-16 22:24 33.72247 -117.99410 28637 ft 454 kts 153°
2026-04-16 22:25 33.69531 -117.97615 28336 ft 439 kts 153°
2026-04-16 22:25 33.66863 -117.95856 27664 ft 434 kts 153°
2026-04-16 22:25 33.64237 -117.94124 27073 ft 428 kts 153°
2026-04-16 22:25 33.61649 -117.92419 26498 ft 421 kts 152°
2026-04-16 22:26 33.59098 -117.90738 25942 ft 415 kts 153°
2026-04-16 22:26 33.56582 -117.89081 25393 ft 411 kts 152°
2026-04-16 22:26 33.54085 -117.87437 24855 ft 408 kts 152°
2026-04-16 22:26 33.51622 -117.85763 24307 ft 406 kts 151°
2026-04-16 22:27 33.49172 -117.84087 23768 ft 404 kts 151°
2026-04-16 22:27 33.46734 -117.82424 23193 ft 402 kts 151°
2026-04-16 22:27 33.44348 -117.80733 22703 ft 397 kts 146°
2026-04-16 22:27 33.42218 -117.78652 22182 ft 393 kts 138°
2026-04-16 22:28 33.40198 -117.76465 21637 ft 390 kts 138°
2026-04-16 22:28 33.38191 -117.74305 21134 ft 386 kts 138°
2026-04-16 22:28 33.36199 -117.72166 20628 ft 383 kts 139°
2026-04-16 22:28 33.34224 -117.70052 20126 ft 380 kts 139°
2026-04-16 22:29 33.32260 -117.67953 19625 ft 377 kts 139°
2026-04-16 22:29 33.30315 -117.65879 19125 ft 374 kts 139°
2026-04-16 22:29 33.28383 -117.63820 18639 ft 370 kts 139°
2026-04-16 22:29 33.26468 -117.61783 18084 ft 368 kts 139°
2026-04-16 22:30 33.24570 -117.59765 17618 ft 362 kts 139°
2026-04-16 22:30 33.22685 -117.57780 17143 ft 360 kts 139°
2026-04-16 22:30 33.20808 -117.55804 16670 ft 359 kts 139°
2026-04-16 22:30 33.18936 -117.53835 16201 ft 358 kts 139°
2026-04-16 22:31 33.17067 -117.51869 15722 ft 358 kts 139°
2026-04-16 22:31 33.15204 -117.49913 15260 ft 356 kts 139°
2026-04-16 22:31 33.13359 -117.47977 14940 ft 350 kts 140°
2026-04-16 22:31 33.11419 -117.46267 14623 ft 342 kts 147°
2026-04-16 22:32 33.09480 -117.44714 14416 ft 329 kts 147°
2026-04-16 22:32 33.07619 -117.43196 14224 ft 320 kts 147°
2026-04-16 22:32 33.05817 -117.41719 14015 ft 319 kts 147°
2026-04-16 22:32 33.03986 -117.40211 13647 ft 319 kts 146°
2026-04-16 22:33 33.02178 -117.38703 13316 ft 316 kts 146°
2026-04-16 22:33 33.00379 -117.37200 12879 ft 315 kts 146°
2026-04-16 22:33 32.98592 -117.35705 12453 ft 313 kts 146°
2026-04-16 22:33 32.96822 -117.34224 12043 ft 309 kts 146°
2026-04-16 22:34 32.95105 -117.32788 11594 ft 294 kts 146°
2026-04-16 22:34 32.93473 -117.31422 11217 ft 279 kts 146°
2026-04-16 22:34 32.91918 -117.30121 10884 ft 271 kts 146°
2026-04-16 22:34 32.90376 -117.28838 10560 ft 271 kts 146°
2026-04-16 22:35 32.88844 -117.27566 10148 ft 265 kts 146°
2026-04-16 22:35 32.87343 -117.26319 9834 ft 262 kts 146°
2026-04-16 22:35 32.85852 -117.25081 9510 ft 261 kts 146°
2026-04-16 22:35 32.84359 -117.23842 9160 ft 263 kts 146°
2026-04-16 22:36 32.82862 -117.22599 8781 ft 259 kts 146°
2026-04-16 22:36 32.81511 -117.21244 8446 ft 254 kts 127°
2026-04-16 22:36 32.80801 -117.19337 8166 ft 253 kts 105°
2026-04-16 22:36 32.80372 -117.17305 7795 ft 254 kts 104°
2026-04-16 22:37 32.79936 -117.15256 7462 ft 256 kts 104°
2026-04-16 22:37 32.79524 -117.13262 7461 ft 242 kts 104°
2026-04-16 22:37 32.79120 -117.11307 7175 ft 247 kts 104°
2026-04-16 22:37 32.78711 -117.09321 6872 ft 248 kts 104°
2026-04-16 22:38 32.78301 -117.07326 6581 ft 249 kts 104°
2026-04-16 22:38 32.77885 -117.05302 6095 ft 259 kts 104°
2026-04-16 22:38 32.77479 -117.03309 6385 ft 235 kts 104°
2026-04-16 22:38 32.77084 -117.01398 6625 ft 236 kts 104°
2026-04-16 22:39 32.76685 -116.99414 6414 ft 257 kts 103°
2026-04-16 22:39 32.76273 -116.97369 6171 ft 254 kts 104°
2026-04-16 22:39 32.75861 -116.95355 6079 ft 244 kts 104°
2026-04-16 22:39 32.75472 -116.93439 6121 ft 236 kts 104°
2026-04-16 22:40 32.75077 -116.91493 5928 ft 246 kts 104°
2026-04-16 22:40 32.74677 -116.89516 5671 ft 245 kts 104°
2026-04-16 22:40 32.74170 -116.87601 5429 ft 242 kts 120°
2026-04-16 22:40 32.73001 -116.86226 5214 ft 236 kts 155°
2026-04-16 22:41 32.71438 -116.85887 5087 ft 223 kts 192°
2026-04-16 22:41 32.70094 -116.86662 5095 ft 218 kts 226°
2026-04-16 22:41 32.69347 -116.88226 4923 ft 222 kts 251°
2026-04-16 22:41 32.68845 -116.89969 4794 ft 224 kts 251°
2026-04-16 22:42 32.68328 -116.91733 4698 ft 228 kts 252°
2026-04-16 22:42 32.68001 -116.93547 4467 ft 225 kts 264°
2026-04-16 22:42 32.68012 -116.95400 4281 ft 218 kts 276°
2026-04-16 22:42 32.68202 -116.97068 4202 ft 200 kts 279°
2026-04-16 22:43 32.68472 -116.98661 4116 ft 195 kts 282°
2026-04-16 22:43 32.68810 -117.00225 3998 ft 196 kts 285°
2026-04-16 22:43 32.69182 -117.01793 3701 ft 199 kts 285°
2026-04-16 22:43 32.69551 -117.03390 3404 ft 202 kts 284°
2026-04-16 22:44 32.69935 -117.04941 3282 ft 189 kts 285°
2026-04-16 22:44 32.70315 -117.06391 3084 ft 179 kts 285°
2026-04-16 22:44 32.70665 -117.07782 2806 ft 172 kts 283°
2026-04-16 22:44 32.70981 -117.09100 2515 ft 159 kts 284°
2026-04-16 22:45 32.71296 -117.10330 2185 ft 153 kts 283°
2026-04-16 22:45 32.71557 -117.11508 1950 ft 143 kts 281°
2026-04-16 22:45 32.71817 -117.12653 1624 ft 143 kts 284°
2026-04-16 22:45 32.72097 -117.13774 1342 ft 141 kts 282°
2026-04-16 22:46 32.72365 -117.14913 934 ft 144 kts 283°
2026-04-16 22:46 32.72644 -117.16048 530 ft 144 kts 283°
2026-04-16 22:46 32.72930 -117.17179 211 ft 141 kts 279°
2026-04-16 22:46 32.73184 -117.18273 29 ft 131 kts 283°
2026-04-16 22:47 32.73407 -117.19171 19 ft 92 kts 286°
2026-04-16 22:47 32.73541 -117.19727 26 ft 55 kts 285°
2026-04-16 22:47 32.73629 -117.20086 21 ft 31 kts 286°
2026-04-16 22:47 32.73611 -117.20203 22 ft 12 kts 203°
2026-04-16 22:48 32.73572 -117.20231 20 ft 0 kts 227°